Location: Camp Creek
(33.9000°N, 111.8167°W)
Time: 16:55:45
(UTC-07:00)

Cosmos 1656 - Visible Passes

Search period start: 21 August 2014 00:00
Search period end: 31 August 2014 00:00
Orbit: 798 x 850 km, 71.1° (Epoch: 20 August)

Date Brightness Start Highest point End Pass type
(mag) Time Alt. Az. Time Alt. Az. Time Alt. Az.
21 Aug 4.3 03:51:50 27° S 03:54:46 53° ESE 04:00:18 10° NNE visible
22 Aug 4.6 03:32:38 33° SSE 03:34:30 44° ESE 03:39:53 10° NE visible
22 Aug 5.0 05:14:07 11° WSW 05:18:19 22° WNW 05:22:41 10° N visible
23 Aug 4.7 03:13:22 35° SE 03:14:14 37° ESE 03:19:26 10° NE visible
23 Aug 4.9 04:54:51 17° WSW 04:57:55 26° WNW 05:02:37 10° N visible
24 Aug 5.0 02:54:02 32° ESE 02:54:02 32° ESE 02:58:56 10° NE visible
24 Aug 4.7 04:35:30 24° W 04:37:32 30° WNW 04:42:30 10° N visible
25 Aug 5.4 02:34:38 25° E 02:34:38 25° E 02:38:23 10° NE visible
25 Aug 4.4 04:16:06 33° W 04:17:10 35° WNW 04:22:21 10° N visible
26 Aug 5.8 02:15:12 20° ENE 02:15:12 20° ENE 02:17:47 10° NE visible
26 Aug 4.2 03:56:39 41° WNW 03:56:48 41° WNW 04:02:09 10° N visible
27 Aug 6.2 01:55:42 15° ENE 01:55:42 15° ENE 01:57:05 10° ENE visible
27 Aug 4.2 03:37:10 46° NW 03:37:10 46° NW 03:41:57 10° N visible
28 Aug 6.5 01:36:09 10° ENE 01:36:09 10° ENE 01:36:16 10° ENE visible
28 Aug 4.5 03:17:37 44° NNW 03:17:37 44° NNW 03:21:42 10° NNE visible
29 Aug 4.9 02:58:02 37° N 02:58:02 37° N 03:01:26 10° NNE visible
30 Aug 5.3 02:38:25 30° NNE 02:38:25 30° NNE 02:41:09 10° NNE visible
30 Aug 5.9 04:19:52 10° NW 04:19:57 10° NW 04:20:09 10° NW visible
